Weather History for Newport News, VA

Change the Weather History Date:

Friday, January 6, 2012

  Actual Average Record
Temperature  
Mean Temperature 52 °F -  
Max Temperature 66 °F 44 °F 73 °F (1950)
Min Temperature 37 °F 28 °F 13 °F (1959)
Degree Days  
Heating Degree Days 14    
Growing Degree Days 2 (Base 50)    
Moisture  
Dew Point 29 °F    
Average Humidity 46    
Maximum Humidity 65    
Minimum Humidity 25    
Precipitation  
Precipitation 0.00 in - - ()
Sea Level Pressure  
Sea Level Pressure 29.97 in    
Wind  
Wind Speed 9 mph (SW)    
Max Wind Speed 16 mph    
Max Gust Speed 22 mph    
Visibility 10 miles    
Events      
Averages and records for this station are not official NWS values.
T = Trace of Precipitation, MM = Missing Value Source: NWS Daily Summary

Daily Weather History Graph

Daily Weather History Graph

Search for Another Location

Airport:

Trip Planner

Search our weather history database for the weather conditions in past years. The results will help you decide how hot, cold, wet, or windy it might be!

Date:

Astronomy

Jan. 06, 2012 Rise Set
Actual Time 7:20 AM EST 5:03 PM EST
Civil Twilight 6:51 AM EST 5:32 PM EST
Nautical Twilight 6:18 AM EST 6:04 PM EST
Astronomical Twilight 5:47 AM EST 6:36 PM EST
Moon 2:52 PM EST (1/6) 4:57 AM EST (1/6)
Length of Visible Light 10h 41m
Length of Day
9h 43m
Waxing Gibbous, 93% of the Moon is Illuminated
Jan 6
Waxing Gibbous
Jan 9
Full
Jan 16
Last Quarter
Jan 23
New
Jan 30
First Quarter

Hourly Weather History & Observations

Time (EST) Temp. Windchill Dew Point Humidity Pressure Visibility Wind Dir Wind Speed Gust Speed Precip Events Conditions
12:54 AM 37.9 °F 34.4 °F 27.0 °F 65% 30.04 in 10.0 mi SW 4.6 mph - N/A   Clear
1:54 AM 39.0 °F 34.8 °F 26.1 °F 60% 30.02 in 10.0 mi South 5.8 mph - N/A   Clear
2:54 AM 37.4 °F 33.8 °F 26.6 °F 65% 30.02 in 10.0 mi SW 4.6 mph - N/A   Clear
3:54 AM 39.9 °F 34.5 °F 28.9 °F 65% 30.02 in 10.0 mi SW 8.1 mph - N/A   Clear
4:54 AM 39.9 °F 35.1 °F 28.0 °F 63% 30.01 in 10.0 mi SW 6.9 mph - N/A   Clear
5:54 AM 39.0 °F 34.0 °F 27.0 °F 62% 30.02 in 10.0 mi SW 6.9 mph - N/A   Clear
6:54 AM 41.0 °F 34.3 °F 28.0 °F 60% 30.02 in 10.0 mi SW 11.5 mph - N/A   Clear
7:54 AM 42.1 °F 35.2 °F 28.0 °F 58% 30.01 in 10.0 mi SW 12.7 mph - N/A   Clear
8:54 AM 46.0 °F 41.4 °F 28.0 °F 50% 30.03 in 10.0 mi WSW 9.2 mph - N/A   Clear
9:54 AM 51.1 °F - 28.0 °F 41% 30.04 in 10.0 mi WSW 10.4 mph - N/A   Clear
10:54 AM 55.9 °F - 28.0 °F 34% 30.02 in 10.0 mi West 9.2 mph - N/A   Clear
11:54 AM 60.1 °F - 28.0 °F 30% 29.98 in 10.0 mi WSW 16.1 mph - N/A   Clear
12:54 PM 63.0 °F - 28.0 °F 27% 29.95 in 10.0 mi WSW 13.8 mph 21.9 mph N/A   Clear
1:54 PM 64.9 °F - 28.9 °F 26% 29.92 in 10.0 mi WSW 13.8 mph - N/A   Clear
2:54 PM 66.9 °F - 30.0 °F 25% 29.91 in 10.0 mi SSW 15.0 mph - N/A   Clear
3:54 PM 64.0 °F - 28.9 °F 27% 29.91 in 10.0 mi SW 12.7 mph - N/A   Clear
4:54 PM 59.0 °F - 30.0 °F 33% 29.91 in 10.0 mi SW 10.4 mph - N/A   Clear
5:54 PM 55.0 °F - 30.9 °F 40% 29.92 in 10.0 mi SW 9.2 mph - N/A   Clear
6:54 PM 53.1 °F - 30.0 °F 41% 29.93 in 10.0 mi SW 10.4 mph - N/A   Clear
7:54 PM 51.1 °F - 30.9 °F 46% 29.93 in 10.0 mi SW 9.2 mph - N/A   Clear
8:54 PM 50.0 °F - 30.9 °F 48% 29.93 in 10.0 mi SW 9.2 mph - N/A   Clear
9:54 PM 50.0 °F - 32.0 °F 50% 29.93 in 10.0 mi SW 9.2 mph - N/A   Clear
10:54 PM 52.0 °F - 30.9 °F 45% 29.92 in 10.0 mi WSW 9.2 mph - N/A   Clear
11:54 PM 48.9 °F - 32.0 °F 52% 29.91 in 10.0 mi SW 11.5 mph - N/A   Clear